,,PressureMeas_1m,,PRMeasQMR101_1,,RHStat155_1m_1,,SRMeasQMS101R_1m,,TAStat155_1m_1,,GenWind_1,,GenWind_1,
2017-07-09, 07:00:06,VALID,918.656,VALID,0.0,VALID,97.725,VALID,31.775,VALID,18.706,VALID,139.0,VALID,1.259,
2017-07-09, 07:01:06,VALID,918.672,VALID,0.0,VALID,97.802,VALID,33.336,VALID,18.735,VALID,139.0,VALID,1.495,
2017-07-09, 07:02:06,VALID,918.687,VALID,0.0,VALID,97.857,VALID,34.381,VALID,18.746,VALID,138.0,VALID,1.696,
2017-07-09, 07:03:06,VALID,918.705,VALID,0.0,VALID,97.934,VALID,36.052,VALID,18.752,VALID,134.0,VALID,1.581,
2017-07-09, 07:04:06,VALID,918.718,VALID,0.0,VALID,98.021,VALID,37.305,VALID,18.756,VALID,124.0,VALID,1.604,
2017-07-09, 07:05:06,VALID,918.719,VALID,0.0,VALID,98.085,VALID,39.091,VALID,18.751,VALID,119.0,VALID,1.693,
2017-07-09, 07:06:06,VALID,918.727,VALID,0.0,VALID,98.143,VALID,41.434,VALID,18.739,VALID,126.0,VALID,1.66,
2017-07-09, 07:07:06,VALID,918.732,VALID,0.0,VALID,98.155,VALID,42.5,VALID,18.729,VALID,108.0,VALID,1.444,
2017-07-09, 07:08:06,VALID,918.744,VALID,0.0,VALID,98.189,VALID,44.382,VALID,18.724,VALID,101.0,VALID,1.745,
2017-07-09, 07:09:06,VALID,918.752,VALID,0.0,VALID,98.23,VALID,46.01,VALID,18.713,VALID,115.0,VALID,1.536,
2017-07-09, 07:10:06,VALID,918.762,VALID,0.0,VALID,98.279,VALID,47.232,VALID,18.724,VALID,115.0,VALID,1.302,
2017-07-09, 07:11:06,VALID,918.769,VALID,0.0,VALID,98.307,VALID,48.4,VALID,18.733,VALID,107.0,VALID,1.252,
2017-07-09, 07:12:06,VALID,918.805,VALID,0.0,VALID,98.308,VALID,49.584,VALID,18.718,VALID,101.0,VALID,1.308,
2017-07-09, 07:13:06,VALID,918.814,VALID,0.0,VALID,98.307,VALID,51.007,VALID,18.697,VALID,109.0,VALID,1.379,
2017-07-09, 07:14:06,VALID,918.846,VALID,0.0,VALID,98.322,VALID,52.197,VALID,18.714,VALID,105.0,VALID,1.137,
2017-07-09, 07:15:06,VALID,918.868,VALID,0.0,VALID,98.343,VALID,53.436,VALID,18.722,VALID,106.0,VALID,1.09,
2017-07-09, 07:16:06,VALID,918.886,VALID,0.0,VALID,98.363,VALID,54.673,VALID,18.743,VALID,101.0,VALID,1.018,
2017-07-09, 07:17:06,VALID,918.9,VALID,0.0,VALID,98.334,VALID,55.987,VALID,18.725,VALID,103.0,VALID,1.112,
2017-07-09, 07:18:06,VALID,918.913,VALID,0.0,VALID,98.301,VALID,57.313,VALID,18.717,VALID,94.0,VALID,1.036,
2017-07-09, 07:19:06,VALID,918.919,VALID,0.0,VALID,98.277,VALID,58.665,VALID,18.735,VALID,91.0,VALID,1.07,
2017-07-09, 07:20:06,VALID,918.929,VALID,0.0,VALID,98.238,VALID,59.975,VALID,18.745,VALID,84.0,VALID,0.973,
2017-07-09, 07:21:06,VALID,918.933,VALID,0.0,VALID,98.167,VALID,61.286,VALID,18.733,VALID,93.0,VALID,0.789,
2017-07-09, 07:22:06,VALID,918.94,VALID,0.0,VALID,98.062,VALID,62.597,VALID,18.726,VALID,97.0,VALID,0.63,
2017-07-09, 07:23:06,VALID,918.941,VALID,0.0,VALID,97.933,VALID,63.891,VALID,18.723,VALID,102.0,VALID,0.708,
2017-07-09, 07:24:06,VALID,918.954,VALID,0.0,VALID,97.776,VALID,65.193,VALID,18.755,VALID,86.0,VALID,0.325,
2017-07-09, 07:25:06,VALID,918.959,VALID,0.0,VALID,97.729,VALID,66.517,VALID,18.801,VALID,92.0,VALID,0.4,
2017-07-09, 07:26:06,VALID,918.98,VALID,0.0,VALID,97.511,VALID,67.812,VALID,18.817,VALID,110.0,VALID,0.555,
2017-07-09, 07:27:06,VALID,919.003,VALID,0.0,VALID,97.333,VALID,68.996,VALID,18.871,VALID,115.0,VALID,0.121,
2017-07-09, 07:28:06,VALID,919.019,VALID,0.0,VALID,97.243,VALID,70.053,VALID,18.906,VALID,115.0,VALID,0.132,
2017-07-09, 07:29:06,VALID,919.034,VALID,0.0,VALID,97.128,VALID,70.907,VALID,18.966,VALID,83.0,VALID,0.242,
2017-07-09, 07:30:06,VALID,919.061,VALID,0.0,VALID,97.002,VALID,71.686,VALID,18.976,VALID,78.0,VALID,0.618,
2017-07-09, 07:31:06,VALID,919.086,VALID,0.0,VALID,96.517,VALID,72.328,VALID,18.969,VALID,84.0,VALID,0.438,
2017-07-09, 07:32:06,VALID,919.105,VALID,0.0,VALID,96.399,VALID,72.868,VALID,18.991,VALID,97.0,VALID,0.669,
2017-07-09, 07:33:06,VALID,919.129,VALID,0.0,VALID,96.011,VALID,73.289,VALID,19.008,VALID,106.0,VALID,0.715,
2017-07-09, 07:34:06,VALID,919.152,VALID,0.0,VALID,96.225,VALID,73.576,VALID,19.088,VALID,116.0,VALID,0.726,
2017-07-09, 07:35:06,VALID,919.188,VALID,0.0,VALID,96.002,VALID,73.643,VALID,19.127,VALID,117.0,VALID,1.054,
2017-07-09, 07:36:06,VALID,919.212,VALID,0.0,VALID,95.423,VALID,73.475,VALID,19.149,VALID,122.0,VALID,1.46,
2017-07-09, 07:37:06,VALID,919.237,VALID,0.0,VALID,95.134,VALID,73.124,VALID,19.186,VALID,122.0,VALID,1.272,
2017-07-09, 07:38:06,VALID,919.262,VALID,0.0,VALID,95.475,VALID,72.566,VALID,19.221,VALID,128.0,VALID,1.203,
2017-07-09, 07:39:06,VALID,919.277,VALID,0.0,VALID,95.339,VALID,71.852,VALID,19.209,VALID,128.0,VALID,1.453,
2017-07-09, 07:40:06,VALID,919.279,VALID,0.0,VALID,95.115,VALID,70.993,VALID,19.213,VALID,121.0,VALID,1.096,
2017-07-09, 07:41:06,VALID,919.28,VALID,0.0,VALID,95.742,VALID,70.015,VALID,19.252,VALID,132.0,VALID,1.123,
2017-07-09, 07:42:06,VALID,919.288,VALID,0.0,VALID,95.692,VALID,69.023,VALID,19.256,VALID,131.0,VALID,0.793,
2017-07-09, 07:43:06,VALID,919.296,VALID,0.0,VALID,96.135,VALID,68.109,VALID,19.266,VALID,138.0,VALID,0.717,
2017-07-09, 07:44:06,VALID,919.324,VALID,0.0,VALID,96.351,VALID,67.371,VALID,19.252,VALID,146.0,VALID,0.532,
2017-07-09, 07:45:06,VALID,919.337,VALID,0.0,VALID,96.596,VALID,66.906,VALID,19.243,VALID,148.0,VALID,0.416,
2017-07-09, 07:46:06,VALID,919.352,VALID,0.0,VALID,96.623,VALID,66.804,VALID,19.228,VALID,154.0,VALID,0.455,
2017-07-09, 07:47:06,VALID,919.377,VALID,0.0,VALID,96.627,VALID,67.165,VALID,19.202,VALID,152.0,VALID,0.7,
2017-07-09, 07:48:06,VALID,919.391,VALID,0.0,VALID,96.664,VALID,68.001,VALID,19.189,VALID,146.0,VALID,0.789,
2017-07-09, 07:49:06,VALID,919.412,VALID,0.0,VALID,96.698,VALID,69.356,VALID,19.186,VALID,134.0,VALID,0.736,
2017-07-09, 07:50:06,VALID,919.417,VALID,0.0,VALID,96.871,VALID,71.128,VALID,19.221,VALID,136.0,VALID,0.702,
2017-07-09, 07:51:06,VALID,919.445,VALID,0.0,VALID,96.839,VALID,73.323,VALID,19.217,VALID,135.0,VALID,0.872,
2017-07-09, 07:52:06,VALID,919.467,VALID,0.0,VALID,96.769,VALID,75.757,VALID,19.224,VALID,144.0,VALID,1.118,
2017-07-09, 07:53:06,VALID,919.503,VALID,0.0,VALID,96.814,VALID,78.342,VALID,19.226,VALID,151.0,VALID,1.011,
2017-07-09, 07:54:06,VALID,919.53,VALID,0.0,VALID,96.795,VALID,80.99,VALID,19.213,VALID,154.0,VALID,1.103,
2017-07-09, 07:55:06,VALID,919.571,VALID,0.0,VALID,96.434,VALID,83.339,VALID,19.154,VALID,142.0,VALID,1.298,
2017-07-09, 07:56:06,VALID,919.588,VALID,0.0,VALID,96.645,VALID,85.398,VALID,19.128,VALID,139.0,VALID,1.222,
2017-07-09, 07:57:06,VALID,919.611,VALID,0.0,VALID,97.021,VALID,87.62,VALID,19.127,VALID,135.0,VALID,1.0,
2017-07-09, 07:58:06,VALID,919.635,VALID,0.0,VALID,97.286,VALID,90.512,VALID,19.146,VALID,118.0,VALID,0.895,
2017-07-09, 07:59:06,VALID,919.656,VALID,0.0,VALID,97.382,VALID,92.624,VALID,19.148,VALID,118.0,VALID,1.102,
2017-07-09, 08:00:06,VALID,919.689,VALID,0.0,VALID,97.373,VALID,94.64,VALID,19.152,VALID,117.0,VALID,1.063,
2017-07-09, 08:01:06,VALID,919.695,VALID,0.0,VALID,97.274,VALID,96.653,VALID,19.142,VALID,106.0,VALID,1.095,
2017-07-09, 08:02:06,VALID,919.704,VALID,0.0,VALID,96.15,VALID,98.773,VALID,19.05,VALID,113.0,VALID,1.573,
2017-07-09, 08:03:06,VALID,919.729,VALID,0.0,VALID,95.36,VALID,100.958,VALID,19.067,VALID,120.0,VALID,1.261,
2017-07-09, 08:04:06,VALID,919.727,VALID,0.0,VALID,95.535,VALID,103.256,VALID,19.144,VALID,103.0,VALID,1.046,
2017-07-09, 08:05:06,VALID,919.737,VALID,0.0,VALID,95.792,VALID,105.685,VALID,19.2,VALID,124.0,VALID,0.958,
2017-07-09, 08:06:06,VALID,919.749,VALID,0.0,VALID,95.668,VALID,108.292,VALID,19.225,VALID,136.0,VALID,1.002,
2017-07-09, 08:07:06,VALID,919.753,VALID,0.0,VALID,95.24,VALID,111.113,VALID,19.246,VALID,140.0,VALID,1.177,
2017-07-09, 08:08:06,VALID,919.743,VALID,0.0,VALID,95.26,VALID,114.145,VALID,19.302,VALID,141.0,VALID,1.036,
2017-07-09, 08:09:06,VALID,919.756,VALID,0.0,VALID,94.627,VALID,117.485,VALID,19.343,VALID,133.0,VALID,0.97,
2017-07-09, 08:10:06,VALID,919.759,VALID,0.0,VALID,94.453,VALID,120.9,VALID,19.426,VALID,142.0,VALID,0.82,
2017-07-09, 08:11:06,VALID,919.772,VALID,0.0,VALID,94.842,VALID,124.455,VALID,19.501,VALID,144.0,VALID,0.906,
2017-07-09, 08:12:06,VALID,919.773,VALID,0.0,VALID,94.168,VALID,128.037,VALID,19.473,VALID,148.0,VALID,1.482,
2017-07-09, 08:13:06,VALID,919.786,VALID,0.0,VALID,94.398,VALID,131.736,VALID,19.442,VALID,144.0,VALID,1.341,
2017-07-09, 08:14:06,VALID,919.798,VALID,0.0,VALID,94.638,VALID,135.467,VALID,19.439,VALID,146.0,VALID,1.265,
2017-07-09, 08:15:06,VALID,919.805,VALID,0.0,VALID,94.488,VALID,139.36,VALID,19.421,VALID,142.0,VALID,1.604,
2017-07-09, 08:16:06,VALID,919.827,VALID,0.0,VALID,94.373,VALID,143.439,VALID,19.419,VALID,145.0,VALID,1.472,
2017-07-09, 08:17:06,VALID,919.833,VALID,0.0,VALID,94.459,VALID,148.099,VALID,19.441,VALID,141.0,VALID,1.381,
2017-07-09, 08:18:06,VALID,919.849,VALID,0.0,VALID,93.523,VALID,153.163,VALID,19.481,VALID,138.0,VALID,1.246,
2017-07-09, 08:19:06,VALID,919.867,VALID,0.0,VALID,93.599,VALID,159.847,VALID,19.559,VALID,130.0,VALID,1.306,
2017-07-09, 08:20:06,VALID,919.881,VALID,0.0,VALID,93.349,VALID,171.274,VALID,19.649,VALID,124.0,VALID,1.169,
2017-07-09, 08:21:06,VALID,919.883,VALID,0.0,VALID,93.547,VALID,183.0,VALID,19.728,VALID,129.0,VALID,1.325,
2017-07-09, 08:22:06,VALID,919.897,VALID,0.0,VALID,93.424,VALID,185.376,VALID,19.783,VALID,129.0,VALID,1.282,
2017-07-09, 08:23:06,VALID,919.903,VALID,0.0,VALID,93.515,VALID,188.407,VALID,19.846,VALID,116.0,VALID,1.121,
2017-07-09, 08:24:06,VALID,919.927,VALID,0.0,VALID,94.07,VALID,190.279,VALID,19.918,VALID,122.0,VALID,1.044,
2017-07-09, 08:25:06,VALID,919.926,VALID,0.0,VALID,93.729,VALID,194.434,VALID,19.968,VALID,126.0,VALID,1.135,
2017-07-09, 08:26:06,VALID,919.95,VALID,0.0,VALID,93.259,VALID,199.189,VALID,19.99,VALID,142.0,VALID,1.145,
2017-07-09, 08:27:06,VALID,919.94,VALID,0.0,VALID,93.036,VALID,204.263,VALID,19.991,VALID,126.0,VALID,0.942,
2017-07-09, 08:28:06,VALID,919.938,VALID,0.0,VALID,93.855,VALID,209.051,VALID,20.037,VALID,128.0,VALID,0.789,
2017-07-09, 08:29:06,VALID,919.933,VALID,0.0,VALID,94.183,VALID,214.111,VALID,20.1,VALID,141.0,VALID,0.536,
2017-07-09, 08:30:06,VALID,919.929,VALID,0.0,VALID,93.137,VALID,219.978,VALID,20.092,VALID,141.0,VALID,1.257,
2017-07-09, 08:31:06,VALID,919.928,VALID,0.0,VALID,92.682,VALID,226.894,VALID,20.089,VALID,119.0,VALID,0.914,
2017-07-09, 08:32:06,VALID,919.939,VALID,0.0,VALID,93.754,VALID,235.993,VALID,20.135,VALID,113.0,VALID,0.677,
2017-07-09, 08:33:06,VALID,919.947,VALID,0.0,VALID,93.925,VALID,246.026,VALID,20.199,VALID,110.0,VALID,0.823,
2017-07-09, 08:34:06,VALID,919.963,VALID,0.0,VALID,93.873,VALID,257.491,VALID,20.247,VALID,95.0,VALID,0.762,
2017-07-09, 08:35:06,VALID,919.961,VALID,0.0,VALID,93.912,VALID,267.296,VALID,20.29,VALID,118.0,VALID,0.869,
2017-07-09, 08:36:06,VALID,919.978,VALID,0.0,VALID,94.471,VALID,277.876,VALID,20.338,VALID,117.0,VALID,1.1,
2017-07-09, 08:37:06,VALID,919.987,VALID,0.0,VALID,93.408,VALID,302.621,VALID,20.328,VALID,127.0,VALID,1.621,
2017-07-09, 08:38:06,VALID,919.997,VALID,0.0,VALID,93.32,VALID,336.665,VALID,20.359,VALID,121.0,VALID,1.187,
2017-07-09, 08:39:06,VALID,920.028,VALID,0.0,VALID,93.735,VALID,343.354,VALID,20.442,VALID,132.0,VALID,1.304,
